• MPC Preparation (Info)

  • MPEC 2006-D43 : 2006 DS14

    The following Minor Planet Electronic Circular may be linked-to from your own Web pages, but must not otherwise be redistributed electronically.

    A form allowing access to any MPEC is at the bottom of this page.


    Read MPEC 2006-D42 Read MPEC 2006-D44


    M.P.E.C. 2006-D43                                Issued 2006 Feb. 25, 15:25 UT
    
         The Minor Planet Electronic Circulars contain information on unusual
             minor planets and routine data on comets.  They are published
       on behalf of Commission 20 of the International Astronomical Union by the
              Minor Planet Center, Smithsonian Astrophysical Observatory,
                              Cambridge, MA 02138, U.S.A.
    
                      Supported in part by the Brinson Foundation
                      Supported in part by the TABASGO Foundation
                 Prepared using the Tamkin Foundation Computer Network
    
                                  MPC@CFA.HARVARD.EDU
              URL http://cfa-www.harvard.edu/iau/mpc.html  ISSN 1523-6714
    
                                       2006 DS14
    
    Observations:
         K06D14S* C2006 02 24.33156 11 54 07.70 -09 57 06.9          17.8 V ED043703
         K06D14S  C2006 02 24.34091 11 54 05.65 -09 55 49.1          17.8 V ED043703
         K06D14S  C2006 02 24.35013 11 54 03.67 -09 54 32.3          17.8 V ED043703
         K06D14S  C2006 02 24.35934 11 54 01.58 -09 53 14.9          17.8 V ED043703
         K06D14S  C2006 02 24.42934 11 53 46.21 -09 43 30.9          17.9 V ED043703
         K06D14S  C2006 02 24.43168 11 53 45.74 -09 43 11.1          17.7 V ED043703
         K06D14S  C2006 02 24.43401 11 53 45.27 -09 42 50.5          17.3 V ED043703
         K06D14S  C2006 02 24.43635 11 53 44.70 -09 42 31.8          17.6 V ED043703
         K06D14S  C2006 02 24.45259 11 53 40.68 -09 40 19.4          17.8 R ED043H36
         K06D14S  C2006 02 24.45497 11 53 40.18 -09 39 59.3          17.8 R ED043H36
         K06D14S  C2006 02 24.45729 11 53 39.69 -09 39 38.9          18.0 R ED043H36
         K06D14S  C2006 02 24.46090 11 53 38.94 -09 39 09.3          18.0 R ED043734
         K06D14S  C2006 02 24.46219 11 53 38.65 -09 38 58.7          17.9 R ED043734
         K06D14S  C2006 02 24.46347 11 53 38.39 -09 38 47.4          17.8 R ED043734
         K06D14S  C2006 02 24.46475 11 53 38.10 -09 38 36.3          17.9 R ED043734
         K06D14S  C2006 02 24.56208 11 53 21.81 -09 24 03.0          17.8 R ED043423
         K06D14S  C2006 02 24.57510 11 53 18.95 -09 22 13.5          17.9 R ED043423
         K06D14S  C2006 02 24.58812 11 53 16.11 -09 20 24.5          17.8 R ED043423
         K06D14S  C2006 02 24.60115 11 53 13.23 -09 18 35.2          18.4 R ED043423
         K06D14S  C2006 02 24.63052 11 53 06.76 -09 14 27.9          18.0 R ED043423
         K06D14S  C2006 02 25.33992 11 50 40.84 -07 34 17.7          17.7 V ED043G96
         K06D14S  C2006 02 25.34515 11 50 38.97 -07 33 37.0          17.5 R ED043H36
         K06D14S  C2006 02 25.34565 11 50 39.55 -07 33 27.9          17.7 V ED043G96
         K06D14S  C2006 02 25.34656 11 50 38.60 -07 33 24.8          17.8 R ED043H36
         K06D14S  C2006 02 25.34758 11 50 38.38 -07 33 15.4          17.7 R ED043H36
         K06D14S  C2006 02 25.34898 11 50 38.06 -07 33 03.0          17.4 R ED043H36
         K06D14S  C2006 02 25.35159 11 50 38.22 -07 32 36.4          17.7 V ED043G96
         K06D14S  C2006 02 25.35365 11 50 37.04 -07 32 23.5          17.8 R ED043H36
         K06D14S  C2006 02 25.35729 11 50 36.88 -07 31 46.9          17.8 V ED043G96
         K06D14S  C2006 02 25.37508 11 50 32.93 -07 29 13.3          17.3 R ED043651
         K06D14S  C2006 02 25.37584 11 50 32.75 -07 29 06.5          17.5 R ED043651
         K06D14S  C2006 02 25.37662 11 50 32.57 -07 28 59.9          17.6 R ED043651
    
    Observer details:
    423 North Ryde.  Observer S. G. McAndrew.  0.20-m f/4 hyperbolic astrograph
        + CCD.
    651 Grasslands Observatory, Tucson.  Observer J. E. McGaha.  0.62-m f/5.1
        Newtonian reflector + CCD.
    703 Catalina Sky Survey.  Observers R. A. Kowalski, A. R. Gibbs.  Measurers
        E. C. Beshore, E. J. Christensen, G. J. Garradd, A. D. Grauer, R. E. Hill,
        R. A. Kowalski, S. M. Larson, R. H. McNaught.  0.68-m Schmidt + CCD.
    734 Farpoint Observatory.  Observer D. Tibbets.  0.7-m reflector + CCD.
    G96 Mt. Lemmon Survey.  Observer E. J. Christensen.  Measurers E. C. Beshore,
        E. J. Christensen, G. J. Garradd, A. R. Gibbs, A. D. Grauer, R. E. Hill,
        R. A. Kowalski, S. M. Larson, R. H. McNaught.  1.5-m reflector + CCD.
    H36 Sandlot Observatory, Scranton.  Observer G. Hug.  0.30-m
        Schmidt-Cassegrain + CCD.
    
    Orbital elements:
    2006 DS14                                                Earth MOID = 0.1575 AU
    Epoch 2006 Feb. 14.0 TT = JDT 2453780.5                 MPC
    M 145.93097              (2000.0)            P               Q
    n   1.22386575     Peri.  188.09485     +0.98148429     +0.13408332
    a   0.8655926      Node   162.33075     -0.14056973     +0.98930732
    e   0.3369717      Incl.   26.78610     -0.13011048     -0.05738189
    P   0.81           H   20.4           G   0.15
    From 32 observations 2006 Feb. 24-25.
    
    Ephemeris:
    2006 DS14                a,e,i = 0.87, 0.34, 27                  q = 0.5739
    Date    TT    R. A. (2000) Decl.     Delta      r     Elong.  Phase     V
    2006 02 24    11 55.22   -10 42.3    0.176    1.145   150.3    25.4    18.1
    2006 03 01    11 37.18   +01 44.7    0.164    1.151   166.1    11.9    17.5
    2006 03 06    11 16.78   +15 06.3    0.165    1.155   170.3     8.3    17.4
    2006 03 11    10 55.33   +27 13.6    0.177    1.157   155.7    20.7    18.0
    2006 03 16    10 34.36   +36 46.9    0.199    1.157   141.8    32.1    18.6
    2006 03 21    10 15.25   +43 41.3    0.226    1.155   130.3    41.1    19.1
    2006 03 26    09 59.02   +48 29.2    0.258    1.152   121.1    47.9    19.6
    2006 03 31    09 46.15   +51 47.1    0.291    1.146   113.5    53.0    20.0
    2006 04 05    09 36.69   +54 03.8    0.324    1.139   107.1    57.1    20.3
    2006 04 10    09 30.34   +55 39.9    0.358    1.130   101.7    60.3    20.6
    2006 04 15    09 26.63   +56 48.7    0.390    1.119    96.9    62.9    20.8
    2006 04 20    09 25.06   +57 39.0    0.420    1.106    92.5    65.2    21.0
    2006 04 25    09 25.23   +58 16.4    0.449    1.091    88.6    67.2    21.2
    2006 04 30    09 26.75   +58 44.9    0.475    1.075    84.9    69.0    21.4
    2006 05 05    09 29.27   +59 07.4    0.498    1.056    81.5    70.8    21.5
    
    Brian G. Marsden             (C) Copyright 2006 MPC           M.P.E.C. 2006-D43
    

    Read MPEC 2006-D42 Read MPEC 2006-D44


    MPEC number:

    Enter an MPEC number in one of the following forms:

    • 1997-B01 (the full form)
    • J97B01 (the packed version of the full form)
    • B01 (the abbreviated form)